Location: Newark
(47.4333°N, 19.2500°E)
Time: 14:43:34
(UTC+00:00)

ISS - Pass Details

Date: 11 March 2021
Orbit: 418 x 422 km, 51.6° (Epoch: 17 April)

Event Time Altitude Azimuth Distance (km) Brightness Sun altitude
Exits shadow 04:00:26 19° 255° (WSW) 1,069 -2.3 -11.6°
Maximum altitude 04:01:44 24° 220° (SW) 908 -2.5 -11.3°
Drops below altitude 10° 04:04:29 10° 164° (SSE) 1,483 -0.9 -10.9°
Sets 04:06:49 0° 150° (SSE) 2,347 0.4 -10.5°
